English version Home page |
Updated on June 14, 2021 |
|
軌道要素Epoch 2019 June 6.0 TT = JDT 2458640.5 T 2019 June 22.74591 TT Rudenko q 2.0350394 (2000.0) P Q z +0.0066460 Peri. 174.91396 +0.99067027 +0.13566348 +/-0.0000018 Node 177.18870 -0.13248990 +0.98101757 e 0.9864752 Incl. 15.31565 -0.03191923 +0.13856384 From 560 observations 2018 June 17-2020 Mar. 21, mean residual 0".5.
|
星図
|
光度変化m1 = 10.0 + 5 logΔ + 13.5 log r(t - 50)
|
軌道要素はM.P.E.C. 2020-H67に掲載されたものです。
|